Location: Litvinovka
(48.6667°N, 34.3500°E)
Time: 03:19:25
(UTC+00:00)

SJ 16-02 - Pass Details

Date: 18 September 2020
Orbit: 606 x 616 km, 75.0° (Epoch: 22 October)

Event Time Altitude Azimuth Distance (km) Brightness Sun altitude
Rises 16:20:59 0° 207° (SSW) 2,854 5.0 -6.2°
Reaches altitude 10° 16:23:13 10° 209° (SSW) 1,954 4.2 -6.5°
Maximum altitude 16:27:34 68° 293° (WNW) 657 1.8 -7.2°
Drops below altitude 10° 16:31:56 10° 17° (NNE) 1,967 3.9 -8.0°
Sets 16:34:12 0° 20° (NNE) 2,876 4.7 -8.3°
